Regional Weather Roundup
Issued by NWS

Home | Current Version | Previous Version | Graphics & Text | Print | Product List | Glossary On
Versions: 1 2 3 4 5 6 7 8 9 10 11 12 13 14 15 16 17 18 19 20 21 22 23 24 25 26 27 28 29 30 31 32 33 34 35 36 37 38 39 40 41 42 43 44 45 46 47 48 49 50
000
ASUS43 KDTX 271301
RWRMI
MICHIGAN HOURLY REGIONAL WEATHER ROUNDUP
NATIONAL WEATHER SERVICE DETROIT/PONTIAC MI
900 AM EDT MON MAR 27 2017

NOTE: "FAIR" INDICATES FEW OR NO CLOUDS BELOW 12,000 FEET WITH NO
SIGNIFICANT WEATHER AND/OR OBSTRUCTION TO VISIBILITY.

MIZ047>049-052>055-059>063-066>070-074>076-081>083-271400-
SOUTHEAST LOWER MICHIGAN

CITY           SKY/WX    TMP DP  RH WIND       PRES   REMARKS
ADRIAN         CLOUDY    51  49  92 W8        29.94R
ALMA           CLOUDY    46  46  97 SW9       29.89R FOG
ANN ARBOR      CLOUDY    51  51 100 SW6       29.92R
BAD AXE        FOG       50  50 100 W6        29.85F VSB 3/4
CARO           CLOUDY    51  51  97 SW9       29.87R FOG
DETROIT CITY   CLOUDY    53  52  96 SW8       29.90R
DETROIT        CLOUDY    53  51  93 SW12      29.93R FOG
FLINT          CLOUDY    52  50  93 W7        29.89R
GROSSE ILE     CLOUDY    45  44  99 CALM      29.91R FOG
HILLSDALE      CLOUDY    46  46 100 SW8       29.93R FOG
HOWELL         CLOUDY    51  49  92 W7        29.90R

CITY           SKY/WX    TMP DP  RH WIND       PRES   REMARKS
JACKSON        CLOUDY    51  50  96 W7        29.92R
LAMBERTVILLE   CLOUDY    54  49  86 W7        29.94R
LANSING        CLOUDY    50  47  89 W9        29.91R
LAPEER         CLOUDY    52  51  96 W7        29.88R FOG
MASON          CLOUDY    51  49  95 SW7       29.91R
MONROE         CLOUDY    52  51  97 SW9       29.92R
MT. CLEMENS    CLOUDY    52  52 100 SW6       29.88R FOG
PONTIAC        CLOUDY    52  50  93 W5        29.88R FOG
PORT HOPE        N/A     38  37  97 NW6       29.83F WCI  33
PORT HURON     CLOUDY    50  48  93 CALM      29.88S FOG
TRI CITIES     CLOUDY    50  49  96 W8        29.88R
MIDLAND        CLOUDY    48  47  97 W3        29.86R FOG
TROY           CLOUDY    53  51  94 SW7       29.91R FOG
SAGINAW HB     CLOUDY    52  46  82 SW12      29.87R
$$
MIZ043>046-050>051-056>058-064>065-071>073-077>080-271400-
SOUTHWEST LOWER MICHIGAN

CITY           SKY/WX    TMP DP  RH WIND       PRES   REMARKS
BATTLE CREEK   CLOUDY    49  48  97 W10       29.93R
BENTON HARBOR  CLOUDY    42  40  92 CALM      29.95R FOG
BIG RAPIDS     CLOUDY    39  38  97 NW3       29.89R
COLDWATER      CLOUDY    50  50 100 SW8       29.94R FOG
FREMONT        CLOUDY    39  39 100 W6        29.91R WCI  34
HOLLAND        CLOUDY    40  40 100 W7        29.95R
GRAND RAPIDS   CLOUDY    42  42 100 W9        29.93R FOG
IONIA          CLOUDY    44  43  96 SW12      29.91R FOG
KALAMAZOO      FOG       49  47  93 VRB5      29.93R VSB 1
LUDINGTON      CLOUDY    37  37 100 NW8       29.91R WCI  30
MARSHALL       CLOUDY    50  50  99 SW7       29.92R
MOUNT PLEASANT CLOUDY    45  44  97 W12       29.87R
MUSKEGON       CLOUDY    39  37  92 W7        29.94R WCI  34
SOUTH HAVEN    CLOUDY    40  40  99 CALM      29.95R FOG
$$
MIZ016>042-271400-
NORTHERN LOWER MICHIGAN

CITY           SKY/WX    TMP DP  RH WIND       PRES   REMARKS
ALPENA         FOG       41  41 100 CALM      29.85S VSB 3/4
BEAVER ISLAND  CLOUDY    34  34 100 NW6       29.91R FOG     WCI  29
BELLAIRE       CLOUDY    35  34  96 N3        29.89F FOG
CADILLAC       CLOUDY    38  37  97 W8        29.86R FOG     WCI  32
CHARLEVOIX     CLOUDY    34  34 100 W9        29.93R FOG     WCI  27
FRANKFORT      CLOUDY    37  35  93 NW6       29.92R WCI  32
GAYLORD        FOG       41  38  89 W7        29.84R VSB 1/2
GRAYLING       FOG       41  41 100 NW8       29.84F VSB 1
HARBOR SPRINGS FOG       33  33 100 CALM      29.88S VSB 1/4
HOUGHTON LAKE  FOG       42  41  96 W5        29.85R VSB 1/2
MANISTEE       CLOUDY    37  36  96 NW7       29.91R FOG     WCI  32
OSCODA         CLOUDY    43  42  97 SW3       29.84S FOG
PELLSTON       CLOUDY    35  33  92 NW6       29.88S WCI  30
ROGERS CITY    FOG       36  35  95 NW6       29.85  VSB 1   WCI  32
TRAVERSE CITY  CLOUDY    37  35  92 NW7       29.89R FOG     WCI  32
$$
MIZ007>008-015-271400-
EASTERN UPPER MICHIGAN

CITY           SKY/WX    TMP DP  RH WIND       PRES   REMARKS
KINROSS        FOG       33  33 100 NW6       29.88R VSB 1/4 WCI  28
MACKINAC ISLAN CLOUDY    32  32 100 NW5       29.88R WCI  28
NEWBERRY       FOG       32  32  99 NW6       29.89R VSB 1/4 WCI  26
S. S. MARIE    CLOUDY    35  34  96 W6        29.87R WCI  30
MUNISING         N/A     34  34 100 N9        29.91S WCI  27
$$
MIZ004>006-011>014-085-271400-
CENTRAL UPPER MICHIGAN

CITY           SKY/WX    TMP DP  RH WIND       PRES   REMARKS
MANISTIQUE     DRIZZLE   34  32  93 N6        29.90S WCI  29
ESCANABA       CLOUDY    35  33  92 NW6       29.92S WCI  30
MENOMINEE        N/A    N/A N/A N/A MISG        N/A
SAWYER-GWINN   FOG       32  32 100 N9        29.92R VSB 1   WCI  24
$$
MIZ001>003-009>011-084-271400-
WESTERN UPPER MICHIGAN

CITY           SKY/WX    TMP DP  RH WIND       PRES   REMARKS
IRON MOUNTAIN  CLOUDY    34  31  88 NW6       29.89F FOG     WCI  29
HOUGHTON       FOG       33  30  88 NW9       29.92S VSB 1/4 WCI  25
COPPER HARBOR    N/A     33  32  96 N9        29.94R WCI  25
IRONWOOD       FOG       32  31  96 CALM      29.94S VSB 1/4
$$

ABBREVIATIONS USED IN REMARKS
   TC - TEMPERATURE IN CELSIUS
  WCI - WIND CHILL INDEX
   HX - HEAT INDEX
  VSB - VISIBILITY





USA.gov is the U.S. government's official web portal to all federal, state and local government web resources and services.